Location: Newark
(52.3500°N, 175.9667°E)
Time: 20:53:49
(UTC+00:00)

Transit 4A - Pass Details

Date: 19 April 2021
Orbit: 871 x 974 km, 66.8° (Epoch: 16 May)

Event Time Altitude Azimuth Distance (km) Brightness Sun altitude
Rises 11:02:52 0° 178° (S) 3,625 - -24.4°
Reaches altitude 10° 11:05:46 10° 168° (SSE) 2,670 - -24.6°
Maximum altitude 11:10:57 29° 111° (ESE) 1,665 - -24.8°
Exits shadow 11:11:51 27° 96° (E) 1,701 9.0 -24.9°
Drops below altitude 10° 11:16:02 10° 54° (NE) 2,625 10.5 -25.0°
Sets 11:18:51 0° 44° (NE) 3,554 11.4 -25.2°
